Location: Newark
(40.7119°N, 74.0097°W)
Time: 17:04:42
(UTC+00:00)

ISS - Pass Details

Date: 25 June 2021
Orbit: 419 x 421 km, 51.6° (Epoch: 02 August)

Event Time Altitude Azimuth Distance (km) Brightness Sun altitude
Exits shadow 08:25:43 - 183° (S) 1,703 -1.1 -9.9°
Maximum altitude 08:28:44 18° 131° (SE) 1,118 -1.5 -9.5°
Drops below altitude 10° 08:31:03 10° 88° (E) 1,497 -0.1 -9.2°
Sets 08:33:37 0° 68° (ENE) 2,365 1.6 -8.8°
